| time (UTC) | temp F | wind direction | speed MPH | gust MPH | rain 1hr in | rain 24hr in | rain mn in | humidity % | barometer mb |
| 20260503213809 | 66 | 5 | 4.0 | 14.0 | 0.00 | 0.00 | 0.00 | 29 | 1003.4 |
| 20260503212808 | 66 | 286 | 3.0 | 12.0 | 0.00 | 0.00 | 0.00 | 30 | 1003.3 |
| 20260503211808 | 67 | 134 | 3.0 | 8.0 | 0.00 | 0.00 | 0.00 | 30 | 1003.5 |
| 20260503210805 | 67 | 5 | 3.0 | 11.0 | 0.00 | 0.00 | 0.00 | 30 | 1003.6 |
| 20260503205805 | 67 | 350 | 3.0 | 10.0 | 0.00 | 0.00 | 0.00 | 29 | 1003.7 |
| 20260503204806 | 66 | 321 | 3.0 | 10.0 | 0.00 | 0.00 | 0.00 | 31 | 1003.9 |
| 20260503202805 | 66 | 310 | 3.0 | 8.0 | 0.00 | 0.00 | 0.00 | 32 | 1004.1 |
| 20260503201806 | 67 | 5 | 3.0 | 10.0 | 0.00 | 0.00 | 0.00 | 30 | 1004.1 |
| 20260503200804 | 66 | 323 | 3.0 | 14.0 | 0.00 | 0.00 | 0.00 | 28 | 1004.2 |
| 20260503195804 | 67 | 297 | 3.0 | 8.0 | 0.00 | 0.00 | 0.00 | 30 | 1004.3 |
| 20260503194803 | 66 | 5 | 3.0 | 9.0 | 0.00 | 0.00 | 0.00 | 31 | 1004.3 |
| 20260503193803 | 66 | 312 | 3.0 | 8.0 | 0.00 | 0.00 | 0.00 | 34 | 1004.6 |
| 20260503192804 | 65 | 44 | 3.0 | 10.0 | 0.00 | 0.00 | 0.00 | 32 | 1004.8 |
| 20260503191805 | 65 | 171 | 3.0 | 11.0 | 0.00 | 0.00 | 0.00 | 29 | 1004.9 |
| 20260503184808 | 64 | 335 | 3.0 | 10.0 | 0.00 | 0.00 | 0.00 | 31 | 1005.0 |
| 20260503183757 | 64 | 22 | 3.0 | 10.0 | 0.00 | 0.00 | 0.00 | 31 | 1005.1 |
| 20260503182758 | 64 | 346 | 3.0 | 9.0 | 0.00 | 0.00 | 0.00 | 30 | 1005.3 |
| 20260503180758 | 65 | 277 | 3.0 | 9.0 | 0.00 | 0.00 | 0.00 | 28 | 1005.3 |
| 20260503175757 | 63 | 309 | 4.0 | 14.0 | 0.00 | 0.00 | 0.00 | 24 | 1005.6 |
| 20260503174758 | 63 | 355 | 3.0 | 7.0 | 0.00 | 0.00 | 0.00 | 26 | 1005.7 |
| 20260503171756 | 63 | 0 | 3.0 | 10.0 | 0.00 | 0.00 | 0.00 | 23 | 1005.8 |
| 20260503170754 | 63 | 338 | 3.0 | 10.0 | 0.00 | 0.00 | 0.00 | 28 | 1006.1 |
| 20260503150746 | 59 | 80 | 3.0 | 9.0 | 0.00 | 0.00 | 0.00 | 55 | 1006.1 |
| 20260503080736 | 46 | 182 | 0.0 | 0.0 | 0.00 | 0.00 | 0.00 | 75 | 1005.5 |
| 20260503071734 | 49 | 182 | 0.0 | 0.0 | 0.00 | 0.00 | 0.00 | 72 | 1006.0 |
| 20260503070735 | 51 | 182 | 0.0 | 2.0 | 0.00 | 0.00 | 0.00 | 70 | 1006.0 |
| 20260503054729 | 50 | 184 | 3.0 | 5.0 | 0.00 | 0.00 | 0.00 | 75 | 1006.8 |
| 20260503053728 | 50 | 200 | 2.0 | 3.0 | 0.00 | 0.00 | 0.00 | 75 | 1006.9 |
| 20260503052728 | 51 | 200 | 2.0 | 4.0 | 0.00 | 0.00 | 0.00 | 75 | 1006.9 |
| 20260503051729 | 51 | 201 | 1.0 | 3.0 | 0.00 | 0.00 | 0.00 | 75 | 1007.1 |
| 20260503050734 | 51 | 201 | 1.0 | 4.0 | 0.00 | 0.00 | 0.00 | 75 | 1007.1 |
| 20260503045729 | 51 | 210 | 1.0 | 3.0 | 0.00 | 0.00 | 0.00 | 76 | 1007.2 |
| 20260503043728 | 51 | 242 | 0.0 | 2.0 | 0.00 | 0.00 | 0.00 | 77 | 1007.6 |
| 20260503042729 | 51 | 242 | 0.0 | 3.0 | 0.00 | 0.00 | 0.00 | 76 | 1007.7 |
| 20260503041728 | 51 | 233 | 0.0 | 2.0 | 0.00 | 0.00 | 0.00 | 75 | 1007.8 |
| 20260503040727 | 51 | 233 | 0.0 | 2.0 | 0.00 | 0.00 | 0.00 | 75 | 1007.8 |
| 20260503033728 | 52 | 71 | 0.0 | 1.0 | 0.00 | 0.00 | 0.00 | 76 | 1007.9 |
| 20260503032728 | 52 | 67 | 0.0 | 2.0 | 0.00 | 0.00 | 0.00 | 75 | 1008.3 |
| 20260503031728 | 52 | 67 | 0.0 | 2.0 | 0.00 | 0.00 | 0.00 | 75 | 1008.4 |
| 20260503030726 | 53 | 67 | 1.0 | 3.0 | 0.00 | 0.00 | 0.00 | 73 | 1008.5 |
| 20260503025726 | 53 | 67 | 0.0 | 2.0 | 0.00 | 0.00 | 0.00 | 71 | 1008.9 |
| 20260503024723 | 54 | 59 | 1.0 | 4.0 | 0.00 | 0.00 | 0.00 | 68 | 1009.1 |
| 20260503023724 | 55 | 90 | 1.0 | 3.0 | 0.00 | 0.00 | 0.00 | 66 | 1009.3 |
| 20260503021726 | 56 | 351 | 1.0 | 4.0 | 0.00 | 0.00 | 0.00 | 58 | 1009.0 |
| 20260503015720 | 57 | 327 | 1.0 | 4.0 | 0.00 | 0.00 | 0.00 | 55 | 1008.9 |
| 20260503014717 | 57 | 42 | 1.0 | 3.0 | 0.00 | 0.00 | 0.00 | 53 | 1008.9 |
| 20260503013721 | 57 | 41 | 0.0 | 3.0 | 0.00 | 0.00 | 0.00 | 52 | 1008.8 |
| 20260503010719 | 59 | 314 | 2.0 | 7.0 | 0.00 | 0.00 | 0.00 | 46 | 1008.7 |
| 20260503005720 | 59 | 172 | 2.0 | 11.0 | 0.00 | 0.00 | 0.00 | 45 | 1008.5 |
| 20260503004717 | 60 | 231 | 2.0 | 11.0 | 0.00 | 0.00 | 0.00 | 44 | 1008.6 |
| 20260503003719 | 60 | 317 | 2.0 | 9.0 | 0.00 | 0.00 | 0.00 | 42 | 1008.6 |
| 20260503002719 | 61 | 295 | 2.0 | 12.0 | 0.00 | 0.00 | 0.00 | 40 | 1008.4 |
| 20260503000719 | 62 | 294 | 2.0 | 10.0 | 0.00 | 0.00 | 0.00 | 39 | 1008.5 |
| 20260502235715 | 62 | 291 | 3.0 | 10.0 | 0.00 | 0.00 | 0.00 | 39 | 1008.6 |
| 20260502233714 | 62 | 222 | 4.0 | 15.0 | 0.00 | 0.00 | 0.00 | 37 | 1008.6 |
| 20260502232715 | 62 | 252 | 4.0 | 10.0 | 0.00 | 0.00 | 0.00 | 39 | 1008.6 |
| 20260502230713 | 62 | 225 | 5.0 | 12.0 | 0.00 | 0.00 | 0.00 | 38 | 1008.9 |
| 20260502225713 | 62 | 241 | 5.0 | 10.0 | 0.00 | 0.00 | 0.00 | 38 | 1009.0 |
| 20260502223714 | 62 | 233 | 5.0 | 12.0 | 0.00 | 0.00 | 0.00 | 37 | 1009.2 |
| 20260502222713 | 62 | 296 | 4.0 | 10.0 | 0.00 | 0.00 | 0.00 | 37 | 1009.3 |
| 20260502221711 | 62 | 221 | 6.0 | 15.0 | 0.00 | 0.00 | 0.00 | 37 | 1009.3 |
| 20260502220712 | 62 | 229 | 4.0 | 21.0 | 0.00 | 0.00 | 0.00 | 37 | 1009.4 |
| 20260502215711 | 62 | 325 | 7.0 | 15.0 | 0.00 | 0.00 | 0.00 | 36 | 1009.7 |
| 20260502214713 | 62 | 229 | 5.0 | 18.0 | 0.00 | 0.00 | 0.00 | 36 | 1009.6 |